Regional Weather Roundup
Issued by NWS

Home | Current Version | Previous Version | Graphics & Text | Print | Product List | Glossary On
Versions: 1 2 3 4 5 6 7 8 9 10 11 12 13 14 15 16 17 18 19 20 21 22 23 24 25 26 27 28 29 30 31 32 33 34 35 36 37 38 39 40 41 42 43 44 45 46 47 48 49 50
000
ASUS43 KOAX 191102
RWRNE

WEATHER ROUNDUP FOR NEBRASKA
NATIONAL WEATHER SERVICE OMAHA NE
500 AM CST SUN FEB 19 2017

NOTES: SATELLITE DATA IS BEING USED TO AUGMENT CLOUD COVER ABOVE
       12000 FEET.
       "FAIR" INDICATES FEW OR NO CLOUDS BELOW 12,000 FEET WITH NO
       SIGNIFICANT WEATHER AND/OR OBSTRUCTIONS TO VISIBILITY.

  * THESE STATIONS DO NOT REPORT WEATHER SUCH AS RAIN...SNOW OR FOG.

NEZ001>004-019>022-054>056-191200-
NEBRASKA PANHANDLE

CITY           SKY/WX    TMP DP  RH WIND       PRES   REMARKS
SCOTTSBLUFF    CLOUDY    34  27  75 NE5       29.63S WCI  30
ALLIANCE       CLOUDY    34  28  79 S8        29.61F WCI  27
CHADRON        CLOUDY    43  31  62 SW5       29.60S
KIMBALL        CLOUDY    32  25  75 W7        29.65S WCI  25
SIDNEY         CLOUDY    36  24  62 NW9       29.64R WCI  29
$$

NEZ057>060-069>072-079>082-191200-
SOUTHWEST NEBRASKA

CITY           SKY/WX    TMP DP  RH WIND       PRES   REMARKS
NORTH PLATTE   PTCLDY    46  35  65 E8        29.70F
IMPERIAL       CLOUDY    50  33  52 S16       29.67F
LEXINGTON      PTCLDY    45  38  77 S10       29.76S
MCCOOK         CLOUDY    48  38  68 S9        29.73F
OGALLALA       CLOUDY    47  34  60 E6        29.66S
$$

NEZ005>010-023>029-035>040-094-191200-
NORTH CENTRAL NEBRASKA

CITY           SKY/WX    TMP DP  RH WIND       PRES   REMARKS
VALENTINE      PTCLDY    48  35  60 S7        29.66F
AINSWORTH      CLOUDY    42  35  78 S12       29.69S
BROKEN BOW     PTCLDY    36  32  85 CALM      29.75S
O`NEILL        PTCLDY    40  34  78 SE8       29.74S WCI  35
ORD            CLOUDY    34  29  82 E3        29.76S
THEDFORD       PTCLDY    47  37  67 S10       29.69S
$$

NEZ041-046>049-061>064-073>077-083>087-191200-
SOUTH CENTRAL NEBRASKA

CITY           SKY/WX    TMP DP  RH WIND       PRES   REMARKS
GRAND ISLAND   CLEAR     49  46  90 S12       29.80S
AURORA         PTCLDY    46  42  88 S6        29.81F
HASTINGS       CLOUDY    48  44  86 S9        29.81F
HEBRON         MOCLDY    48  46  90 S5        29.84S
HOLDREGE       PTCLDY    41  39  91 S9        29.78F
KEARNEY *      CLOUDY    43  37  81 S7        29.79S
YORK           CLOUDY    45  41  87 S7        29.83R
$$

NEZ011>018-030>034-042>045-191200-
NORTHEAST NEBRASKA

CITY           SKY/WX    TMP DP  RH WIND       PRES   REMARKS
NORFOLK        PTCLDY    44  36  73 S7        29.80R
ALBION         CLOUDY    41  35  78 SE6       29.80R
BLAIR          PTCLDY    43  34  70 S7        29.85R
FREMONT        CLEAR     38  32  79 CALM      29.86R
TEKAMAH        CLEAR     34  31  88 S6        29.85R WCI  29
WAYNE          MOCLDY    41  34  75 SW3       29.81S
$$

NEZ050>053-065>068-078-088>093-191200-
SOUTHEAST NEBRASKA

CITY           SKY/WX    TMP DP  RH WIND       PRES   REMARKS
LINCOLN        CLOUDY    37  30  75 CALM      29.87R
OMAHA EPPLEY   PTCLDY    43  33  68 SE8       29.86R
BEATRICE       PTCLDY    46  43  90 S6        29.87R
FALLS CITY     CLOUDY    48  45  89 S7        29.89R
NEBRASKA CITY  CLOUDY    42  36  78 S6        29.88R
PLATTSMOUTH    PTCLDY    44  34  68 S6        29.87R
$$

NEZ044-045-051>053-067-191200-
OMAHA AREA

CITY           SKY/WX    TMP DP  RH WIND       PRES   REMARKS
OMAHA EPPLEY   PTCLDY    43  33  68 SE8       29.86R
BLAIR          PTCLDY    43  34  70 S7        29.85R
FREMONT        CLEAR     38  32  79 CALM      29.86R
MILLARD        CLEAR     42  35  75 CALM      29.87R
OFFUTT AFB     PTCLDY    36  35  97 CALM      29.87R
PLATTSMOUTH    PTCLDY    44  34  68 S6        29.87R
WAHOO          FAIR      36  31  81 SE5       29.85R WCI  32
$$




USA.gov is the U.S. government's official web portal to all federal, state and local government web resources and services.